Location: Unspecified
(0.0000°N, 0.0000°E)
Time: 06:42:24
(UTC+00:00)

Vanguard 1 - Pass Details

Date: 15 December 2017
Orbit: 650 x 3833 km, 34.3° (Epoch: 22 June)

Event Time Altitude Azimuth Distance (km) Brightness Sun altitude
Rises 19:10:40 0° 268° (W) 3,041 13.9 -17.2°
Reaches altitude 10° 19:14:25 10° 236° (SW) 2,042 13.0 -18.1°
Maximum altitude 19:16:16 12° 211° (SSW) 1,912 12.3 -18.5°
Drops below altitude 10° 19:18:11 10° 185° (S) 2,124 12.2 -18.9°
Sets 19:22:19 0° 155° (SSE) 3,317 12.8 -19.9°
